[[{"header":{"parameterUnit":"m.s-1","parameterCategory":1,"la1":30.2991,"la2":30.254,"lo1":-89.0895,"lo2":-89.0444,"dy":0.0017,"dx":0.0017,"nx":28,"ny":28,"refTime":"2024-10-16T03:00:00:Z","depth":0,"parameterNumber":2,"parameterNumberName":"U-component_of_WINDS"},"data":[0,0,0,0,0,0,0,0,0,0,0,0,0,0,0,0,0,0,0,0,0,0,0,0,0,0,0,0,0,0,0,0,0,0,0,0,0,0,0,0,0,0,0,0,0,0,0,0,0,0,0,0,0,0,0,0,0,0,-5.2422,-5.2423,0,-5.2456,-5.2456,-5.2457,-5.2343,-5.2339,-5.2336,-5.2333,-5.2366,-5.237,-5.2374,0,0,0,0,0,0,0,0,0,0,0,0,0,-5.2258,-5.2262,-5.2422,-5.2423,-5.2423,-5.2456,-5.2456,-5.2457,-5.2344,-5.2339,-5.2335,-5.2331,-5.2365,-5.237,-5.2374,0,0,0,0,0,0,0,0,0,0,0,0,0,-5.2315,-5.2263,-5.2422,-5.2371,-5.2366,-5.2456,-5.2456,-5.2457,-5.2344,-5.2339,-5.2334,-5.2329,-5.2363,-5.2369,-5.2375,-5.2516,0,0,-5.2394,-5.2396,0,0,0,0,0,0,0,0,-5.2312,-5.2321,-5.2378,-5.2374,-5.237,-5.239,-5.2411,-5.2477,-5.2346,-5.2353,-5.2333,-5.2327,-5.2378,-5.2383,-5.24,-5.2517,-5.2519,-5.2394,-5.2398,-5.2401,-5.2402,0,0,0,0,0,0,0,-5.2308,-5.2319,-5.2436,-5.2379,-5.2374,-5.2345,-5.2348,-5.2423,-5.2394,-5.2352,-5.2344,-5.2349,-5.2375,-5.2395,-5.24,-5.2519,-5.2394,-5.24,-5.2403,-5.2406,-5.2753,-5.2759,0,0,0,0,0,0,-5.2311,-5.2316,-5.2434,-5.2437,-5.2327,-5.2352,-5.2355,-5.2389,-5.2393,-5.2388,-5.2353,-5.2344,-5.2387,-5.2393,-5.2401,-5.2566,-5.2401,-5.2406,-5.241,-5.2748,-5.2755,-5.2761,0,0,0,0,0,0,-5.2308,-5.2323,-5.2433,-5.2374,-5.2386,-5.2361,-5.2399,-5.2392,-5.2412,-5.2394,-5.2388,-5.2379,-5.2383,-5.2392,-5.2488,-5.2566,-5.2409,-5.2415,-5.2741,-5.275,-5.2758,-5.2899,0,0,0,0,0,0,-5.2304,-5.2322,-5.2376,-5.2376,-5.239,-5.2521,-5.2404,-5.2396,-5.2423,-5.241,-5.2417,-5.2413,-5.238,-5.248,-5.2494,-5.2572,-5.2419,-5.2734,-5.2745,-5.2755,-5.2887,-5.2911,-5.2931,0,0,0,0,0,-5.2298,-5.2414,-5.2379,-5.2394,-5.2456,-5.2526,-5.2533,-5.2493,-5.2429,-5.2483,-5.2471,-5.2412,-5.2555,-5.249,-5.2506,-5.2586,-5.2729,-5.2742,-5.2754,-5.2877,-5.2906,-5.2931,0,0,0,0,0,0,-5.2422,-5.2413,-5.2374,-5.2493,-5.2511,-5.2506,-5.2573,-5.2525,-5.2561,-5.2548,-5.2496,-5.2499,-5.2604,-5.2604,-5.2533,-5.2723,-5.2631,-5.2647,-5.2719,-5.2746,-5.2768,-5.2766,-5.2425,0,0,0,0,0,-5.2464,-5.2521,-5.2509,-5.2616,-5.2627,-5.2599,-5.2627,-5.2595,-5.2611,-5.2618,-5.2613,-5.2631,-5.2679,-5.2713,-5.2756,-5.2886,-5.2886,-5.2949,-5.2971,-5.2989,-5.3004,-5.3073,-5.3101,-5.2802,-5.2802,-5.2802,0,0,-5.2549,-5.2551,-5.2591,-5.2641,-5.2651,-5.2711,-5.2606,-5.2674,-5.2718,-5.2628,-5.2719,-5.2716,-5.2732,-5.2846,-5.2896,-5.2849,-5.3086,-5.3005,-5.302,-5.3025,-5.3089,-5.3117,-5.3142,-5.281,-5.2809,-5.2807,0,0,-5.2737,-5.2744,-5.2834,-5.2846,-5.2863,-5.2843,-5.2865,-5.2867,-5.2863,-5.2953,-5.2886,-5.2938,-5.3023,-5.3037,-5.3055,-5.3249,-5.3196,-5.3264,-5.338,-5.3448,-5.3472,-5.3492,-5.3562,-5.3588,-5.3279,-5.3279,-5.328,0,-5.2842,-5.2931,-5.2886,-5.2959,-5.2983,-5.2905,-5.2995,-5.3009,-5.3039,-5.3057,-5.3005,-5.311,-5.3115,-5.3231,-5.3279,-5.3296,-5.3319,-5.3264,-5.3472,-5.3492,-5.3511,-5.3577,-5.3603,-5.3288,-5.3287,-5.3286,-5.3285,0,-5.3059,-5.3122,-5.3192,-5.3225,-5.3256,-5.3338,-5.3305,-5.3342,-5.3307,-5.3293,-5.3386,-5.3389,-5.3433,-5.3457,-5.3423,-5.3569,-5.354,-5.3481,-5.3388,-5.3549,-5.361,-5.3635,-5.33,-5.3297,-5.3294,-5.3292,0,0,-5.3327,-5.3333,-5.336,-5.3374,-5.3386,-5.3434,-5.3511,-5.3554,-5.3588,-5.3611,-5.3675,-5.3748,-5.3694,-5.3715,-5.3682,-5.3741,-5.3895,-5.3674,-5.3674,-5.3716,-5.4057,-5.4102,-5.4132,-5.386,-5.3864,-5.3868,-5.4056,0,-5.3513,-5.3647,-5.3609,-5.3743,-5.3801,-5.3726,-5.3794,-5.3809,-5.3798,-5.3845,-5.3831,-5.3885,-5.3808,-5.3821,-5.3876,-5.3865,-5.3963,-5.3851,-5.3919,-5.3922,-5.3919,-5.4164,-5.4212,-5.439,-5.4079,-5.4083,-5.4086,0,-5.3747,-5.3781,-5.3921,-5.3925,-5.3947,-5.4009,-5.4046,-5.4091,-5.4106,-5.4094,-5.4118,-5.4072,-5.4148,-5.4054,-5.4159,-5.4083,-5.4108,-5.4107,-5.4113,-5.4119,-5.4015,-5.4178,-5.4445,-5.4472,-5.4123,-5.412,-5.4118,0,-5.393,-5.401,-5.4104,-5.4118,-5.4124,-5.417,-5.4174,-5.4184,-5.4212,-5.4244,-5.4262,-5.4301,-5.4324,-5.4355,-5.4321,-5.4256,-5.4431,-5.4334,-5.4423,-5.4425,-5.4465,-5.4463,-5.4741,-5.4479,-5.4479,-5.4479,-5.4478,0,-5.4142,-5.4231,-5.4187,-5.4245,-5.4343,-5.4297,-5.4395,-5.4391,-5.44,-5.4456,-5.4394,-5.4447,-5.4399,-5.4448,-5.4422,-5.4513,-5.4523,-5.4515,-5.4507,-5.4522,-5.4523,-5.4539,-5.4526,-5.4486,-5.4484,-5.4483,-5.4481,0,-5.4364,-5.4337,-5.4436,-5.4433,-5.4435,-5.4507,-5.4504,-5.4558,-5.4542,-5.4614,-5.4628,-5.4603,-5.4658,-5.4627,-5.4683,-5.4665,-5.4783,-5.4758,-5.4779,-5.4773,-5.4864,-5.4856,-5.5163,-5.5201,-5.4914,-5.4917,-5.4919,0,-5.4501,-5.4568,-5.4573,-5.4607,-5.4616,-5.467,-5.4699,-5.4656,-5.4689,-5.4711,-5.4762,-5.4812,-5.4849,-5.494,-5.4926,-5.4969,-5.4945,-5.5049,-5.4951,-5.4963,-5.4948,-5.4945,-5.4951,-5.507,-5.5073,-5.5076,-5.5078,0,-5.4749,-5.4733,-5.4777,-5.4818,-5.4854,-5.4883,-5.4907,-5.4938,-5.4895,-5.4935,-5.4991,-5.502,-5.5077,-5.5127,-5.5163,-5.5167,-5.5116,-5.5109,-5.5132,-5.5148,-5.5158,-5.5155,-5.4834,-5.5102,-5.51,-5.5098,-5.5097,-5.5096,-5.4933,-5.499,-5.5003,-5.5054,-5.5068,-5.5092,-5.5142,-5.5133,-5.5179,-5.5223,-5.5194,-5.526,-5.5273,-5.5316,-5.5327,-5.5377,-5.5335,-5.5368,-5.5377,-5.5386,-5.5399,-5.5149,-5.5383,-5.5383,-5.5382,-5.5381,-5.5381,0,-5.5179,-5.5183,-5.5231,-5.5267,-5.5308,-5.5256,-5.528,-5.5318,-5.5377,-5.5393,-5.5431,-5.5495,-5.5543,-5.5534,-5.5577,-5.5619,-5.5597,-5.5632,-5.5629,-5.5631,-5.5434,-5.541,-5.565,-5.565,-5.565,-5.565,-5.565,-5.5649,-5.5311,-5.5405,-5.539,-5.5489,-5.5492,-5.5557,-5.5575,-5.5597,-5.561,-5.5684,-5.5724,-5.5718,-5.5724,-5.5767,-5.5809,-5.5804,-5.5824,-5.5868,-5.5856,-5.5672,-5.5645,-5.562,-5.5597,-5.5872,-5.5873,-5.6049,-5.6051,-5.6052]},{"header":{"parameterUnit":"m.s-1","parameterCategory":1,"la1":30.2991,"la2":30.254,"lo1":-89.0895,"lo2":-89.0444,"dy":0.0017,"dx":0.0017,"nx":28,"ny":28,"refTime":"2024-10-16T03:00:00:Z","depth":0,"parameterNumber":3,"parameterNumberName":"V-component_of_WINDS"},"data":[0,0,0,0,0,0,0,0,0,0,0,0,0,0,0,0,0,0,0,0,0,0,0,0,0,0,0,0,0,0,0,0,0,0,0,0,0,0,0,0,0,0,0,0,0,0,0,0,0,0,0,0,0,0,0,0,0,0,-7.0906,-7.0906,0,-7.095,-7.095,-7.0951,-7.0859,-7.0856,-7.0853,-7.085,-7.0891,-7.0895,-7.0899,0,0,0,0,0,0,0,0,0,0,0,0,0,-7.0737,-7.0741,-7.0906,-7.0906,-7.0907,-7.095,-7.095,-7.0951,-7.086,-7.0856,-7.0852,-7.0849,-7.089,-7.0895,-7.0899,0,0,0,0,0,0,0,0,0,0,0,0,0,-7.0799,-7.0742,-7.0906,-7.0866,-7.0863,-7.095,-7.0951,-7.0951,-7.086,-7.0856,-7.0851,-7.0847,-7.0889,-7.0894,-7.09,-7.1025,0,0,-7.0918,-7.092,0,0,0,0,0,0,0,0,-7.0795,-7.0805,-7.0872,-7.0869,-7.0866,-7.0895,-7.0906,-7.0976,-7.0861,-7.0861,-7.085,-7.0845,-7.0896,-7.0901,-7.0919,-7.1027,-7.1029,-7.0918,-7.0922,-7.0924,-7.0926,0,0,0,0,0,0,0,-7.0791,-7.0802,-7.0923,-7.0873,-7.0869,-7.0845,-7.0849,-7.0919,-7.0903,-7.0861,-7.0854,-7.0861,-7.0893,-7.0913,-7.0919,-7.1029,-7.0918,-7.0923,-7.0927,-7.0929,-7.1242,-7.1246,0,0,0,0,0,0,-7.0792,-7.08,-7.0922,-7.0924,-7.0819,-7.0852,-7.0856,-7.089,-7.0902,-7.09,-7.0865,-7.0857,-7.0906,-7.0912,-7.092,-7.1067,-7.0924,-7.093,-7.0933,-7.1237,-7.1243,-7.1248,0,0,0,0,0,0,-7.0789,-7.0804,-7.092,-7.086,-7.0873,-7.0859,-7.0898,-7.0893,-7.0913,-7.0905,-7.0901,-7.0889,-7.0902,-7.0912,-7.1,-7.1067,-7.0932,-7.0937,-7.1231,-7.1239,-7.1245,-7.1363,0,0,0,0,0,0,-7.0785,-7.0804,-7.0852,-7.0862,-7.0877,-7.1001,-7.0902,-7.0897,-7.0924,-7.0913,-7.0926,-7.0924,-7.0899,-7.0992,-7.1006,-7.1073,-7.0942,-7.1225,-7.1235,-7.1243,-7.1353,-7.1373,-7.139,0,0,0,0,0,-7.0779,-7.0883,-7.0855,-7.087,-7.0938,-7.1005,-7.1013,-7.0984,-7.093,-7.0978,-7.0972,-7.0924,-7.1058,-7.1001,-7.1016,-7.1086,-7.1221,-7.1232,-7.1242,-7.1344,-7.1369,-7.139,0,0,0,0,0,0,-7.088,-7.0883,-7.0853,-7.0963,-7.0985,-7.0989,-7.1049,-7.1011,-7.1047,-7.1036,-7.0997,-7.1001,-7.1096,-7.1099,-7.1037,-7.1208,-7.113,-7.1144,-7.1202,-7.1226,-7.1244,-7.1241,-7.0947,0,0,0,0,0,-7.0915,-7.0971,-7.097,-7.1068,-7.108,-7.1063,-7.1091,-7.1067,-7.1087,-7.1095,-7.1096,-7.1116,-7.1163,-7.1194,-7.1236,-7.1353,-7.1354,-7.1408,-7.1427,-7.1442,-7.1455,-7.1516,-7.154,-7.1284,-7.1284,-7.1283,0,0,-7.0988,-7.0997,-7.1034,-7.1088,-7.1102,-7.1159,-7.1071,-7.1136,-7.1177,-7.1104,-7.1188,-7.119,-7.1209,-7.1312,-7.1357,-7.1318,-7.1526,-7.1456,-7.1469,-7.1473,-7.153,-7.1554,-7.1576,-7.1291,-7.129,-7.1289,0,0,-7.115,-7.1163,-7.1245,-7.1261,-7.1284,-7.1272,-7.1292,-7.1302,-7.1301,-7.1384,-7.1331,-7.1379,-7.146,-7.1476,-7.1495,-7.1663,-7.162,-7.1678,-7.1777,-7.1837,-7.1857,-7.1875,-7.1935,-7.1957,-7.1691,-7.1691,-7.1691,0,-7.1238,-7.1324,-7.1292,-7.1361,-7.1385,-7.1323,-7.1406,-7.1422,-7.1457,-7.1475,-7.143,-7.1531,-7.1539,-7.1645,-7.1686,-7.1704,-7.1724,-7.1677,-7.1857,-7.1874,-7.189,-7.1947,-7.197,-7.1698,-7.1697,-7.1697,-7.1696,0,-7.143,-7.149,-7.1554,-7.1591,-7.1622,-7.1698,-7.1676,-7.1711,-7.1684,-7.1677,-7.1762,-7.177,-7.1813,-7.1836,-7.181,-7.1938,-7.1913,-7.1864,-7.1784,-7.1922,-7.1975,-7.1996,-7.1708,-7.1706,-7.1704,-7.1702,0,0,-7.1657,-7.1676,-7.17,-7.1716,-7.1736,-7.1781,-7.1852,-7.1896,-7.1927,-7.1953,-7.2011,-7.2081,-7.2036,-7.2057,-7.2032,-7.2085,-7.2217,-7.2028,-7.2028,-7.2063,-7.2358,-7.2396,-7.2421,-7.2188,-7.2192,-7.2195,-7.2357,0,-7.1818,-7.1944,-7.1917,-7.2039,-7.2094,-7.2036,-7.2098,-7.2116,-7.211,-7.2155,-7.2147,-7.2198,-7.2134,-7.2147,-7.2196,-7.2191,-7.2276,-7.2178,-7.2241,-7.2244,-7.2239,-7.2449,-7.2488,-7.264,-7.2377,-7.238,-7.2383,0,-7.2023,-7.2058,-7.2187,-7.2198,-7.222,-7.2277,-7.2314,-7.2357,-7.2376,-7.2368,-7.2393,-7.2357,-7.2426,-7.2347,-7.2441,-7.2376,-7.2399,-7.24,-7.2406,-7.241,-7.2322,-7.2459,-7.2688,-7.2711,-7.2415,-7.2412,-7.241,0,-7.2176,-7.2255,-7.2342,-7.2358,-7.2373,-7.2414,-7.2422,-7.2436,-7.2464,-7.2496,-7.2513,-7.2553,-7.2574,-7.2605,-7.258,-7.2524,-7.2679,-7.2597,-7.2673,-7.2674,-7.2708,-7.2707,-7.2944,-7.2724,-7.2723,-7.2723,-7.2723,0,-7.2359,-7.244,-7.2411,-7.2465,-7.2553,-7.2521,-7.2609,-7.2609,-7.2623,-7.2675,-7.2625,-7.2675,-7.2639,-7.2685,-7.2666,-7.2747,-7.2756,-7.2751,-7.2745,-7.2756,-7.2757,-7.2771,-7.276,-7.2729,-7.2728,-7.2727,-7.2725,0,-7.2545,-7.253,-7.2621,-7.2628,-7.2631,-7.2696,-7.2701,-7.275,-7.2741,-7.2807,-7.282,-7.2805,-7.2857,-7.2835,-7.2889,-7.2876,-7.298,-7.2959,-7.2974,-7.2969,-7.3046,-7.304,-7.3302,-7.3334,-7.3093,-7.3095,-7.3097,0,-7.2663,-7.2724,-7.2738,-7.277,-7.2782,-7.2834,-7.2862,-7.2832,-7.2863,-7.2889,-7.2935,-7.2982,-7.3018,-7.3102,-7.3095,-7.3136,-7.3116,-7.3205,-7.3122,-7.3131,-7.3118,-7.3115,-7.312,-7.3222,-7.3225,-7.3227,-7.3229,0,-7.2874,-7.2863,-7.2907,-7.2948,-7.2984,-7.3014,-7.304,-7.3068,-7.3039,-7.3077,-7.3129,-7.3158,-7.3213,-7.326,-7.3296,-7.3302,-7.3261,-7.3255,-7.3275,-7.3287,-7.3293,-7.3291,-7.302,-7.325,-7.3248,-7.3246,-7.3245,-7.3244,-7.3029,-7.3081,-7.3099,-7.3149,-7.3166,-7.3191,-7.3238,-7.3235,-7.3279,-7.3322,-7.3301,-7.3362,-7.3378,-7.3422,-7.3434,-7.348,-7.3445,-7.3474,-7.3481,-7.3489,-7.3499,-7.3286,-7.3486,-7.3486,-7.3485,-7.3485,-7.3484,0,-7.3237,-7.3246,-7.3293,-7.3332,-7.3371,-7.333,-7.3356,-7.3392,-7.3446,-7.3466,-7.3503,-7.3563,-7.3608,-7.3605,-7.3646,-7.3684,-7.3666,-7.3696,-7.3693,-7.3695,-7.3528,-7.3507,-7.3709,-7.3709,-7.3709,-7.3709,-7.3709,-7.3709,-7.3351,-7.3436,-7.3427,-7.3519,-7.3527,-7.3588,-7.3606,-7.3629,-7.3644,-7.3714,-7.3752,-7.375,-7.376,-7.3802,-7.3841,-7.3839,-7.3856,-7.3893,-7.3884,-7.3729,-7.3706,-7.3685,-7.3665,-7.3897,-7.3898,-7.4047,-7.4048,-7.4049]}]]